Вернуться в каталог

CZ-4 DEB

АктивенSSO
NORAD 28070·DEBRIS·🇨🇳 China

Запущен Oct 14, 1999 с Taiyuan Satellite Launch Center

Loading…

Ближайшие Пролёты (ближайшие 24 часа)

TLE

СвежийSource: Space-Track

Эпоха: Sep 13, 2026, 09:50 UTC

1 28070U 99057NA  26256.41020803  .00001172  00000-0  24519-3 0  9991
2 28070  98.4311 316.5881 0059845  23.9191 336.4768 14.60659307267848

Отслеживайте CZ-4 DEB в реальном времени с AllMySat

Download on the App Store